Location: Elende
(51.4317°N, 10.6316°E)
Time: 01:38:35
(UTC+00:00)

NOSS 3-4 (A) - Pass Details

Date: 18 September 2020
Orbit: 886 x 1326 km, 63.4° (Epoch: 22 October)

Event Time Altitude Azimuth Distance (km) Brightness Sun altitude
Exits shadow 22:41:29 41° 324° (NW) 1,373 4.5 -36.8°
Maximum altitude 22:41:54 41° 334° (NNW) 1,369 4.5 -36.8°
Drops below altitude 10° 22:48:10 10° 44° (NE) 2,856 6.3 -36.9°
Sets 22:51:07 0° 52° (NE) 3,883 7.0 -37.0°
